Tracking 34346 objects as of 10-Jun-2026
HD Live streaming from Space Station
objects crossing your sky now

THORAD AGENA D DEB

Track THORAD AGENA D DEB now!
10-day predictions


NORAD ID: 6216
Int'l Code: 1970-025NE
Perigee: 610.4 km
Apogee: 916.8 km
Inclination: 99.0 °
Period: 100.0 minutes
Semi major axis: 7134 km
RCS: 0.0784 m2 (small)
Launch date: April 8, 1970
Source: United States (US)
Launch site: AIR FORCE WESTERN TEST RANGE (AFWTR)

Note: This is SATELLITE DEBRIS
Your satellite tracking list
Your tracking list is empty




NASA's NSSDC Master Catalog

Two Line Element Set (TLE):
1 06216U 70025NE  26161.51268406  .00002837  00000-0  68975-3 0  9995
2 06216  99.0005  62.8753 0214789  92.4536 270.1258 14.40615028875119
Source of the keplerian elements: AFSPC